Retour au catalogue

STARLINK-3563

ActifCommunicationsVLEO
NORAD 51858·PAYLOAD·🇺🇸 United States

Lancé Mar 3, 2022 depuis Cape Canaveral Space Force Station

Loading…

Prochains Passages (prochaines 24 heures)

TLE

FraisSource: CelesTrak SupGP

Époque: Sep 15, 2026, 01:53 UTC

1 51858C 22022G   26258.07895833 -.00052316  00000+0 -15457-2 0  2581
2 51858  53.1566 235.0269 0001271  92.2182 196.2701 15.34415848    17

Suivez STARLINK-3563 en temps réel avec AllMySat

Download on the App Store